PRIVATE WETTERSTATION BILLIGHEIM-ALLFELD                       ZURCK
Wetterdaten: Donnerstag, 26.06.2014
Datum Zeit Temp. A. Temp. A. min Temp. A. max Feuchte A. Luftdruck Regen Wind Richtung Richtung Sonnenschein ET Solar Taupunkt Windchill Windben Empfang
26.06.2014 00:00 10,1 C 10,1 C 10,2 C 74 % 1014,3 hPa 0,0 l/m 0,0 km/h (0 Bft) N 0 0 min 0,025 mm 0 W/m 5,7 C 10,1 C 0,0 km/h (0 Bft) 97 %
26.06.2014 00:10 9,9 C 9,9 C 10,1 C 74 % 1014,3 hPa 0,0 l/m 0,0 km/h (0 Bft) N 0 0 min 0,000 mm 0 W/m 5,5 C 9,9 C 0,0 km/h (0 Bft) 98 %
26.06.2014 00:20 9,7 C 9,7 C 9,9 C 75 % 1014,5 hPa 0,0 l/m 0,0 km/h (0 Bft) NW 315 0 min 0,000 mm 0 W/m 5,5 C 9,7 C 1,6 km/h (1 Bft) 96 %
26.06.2014 00:30 9,4 C 9,4 C 9,7 C 76 % 1014,4 hPa 0,0 l/m 0,0 km/h (0 Bft) NW 315 0 min 0,000 mm 0 W/m 5,4 C 9,4 C 1,6 km/h (1 Bft) 98 %
26.06.2014 00:40 9,3 C 9,3 C 9,4 C 77 % 1014,3 hPa 0,0 l/m 0,0 km/h (0 Bft) N 0 0 min 0,000 mm 0 W/m 5,5 C 9,3 C 0,0 km/h (0 Bft) 98 %
26.06.2014 00:50 9,1 C 9,1 C 9,3 C 77 % 1014,4 hPa 0,0 l/m 0,0 km/h (0 Bft) N 0 0 min 0,000 mm 0 W/m 5,3 C 9,1 C 0,0 km/h (0 Bft) 98 %
26.06.2014 01:00 8,9 C 8,9 C 9,1 C 78 % 1014,5 hPa 0,0 l/m 0,0 km/h (0 Bft) N 0 0 min 0,025 mm 0 W/m 5,3 C 8,9 C 0,0 km/h (0 Bft) 98 %
26.06.2014 01:10 8,8 C 8,8 C 8,9 C 78 % 1014,3 hPa 0,0 l/m 0,0 km/h (0 Bft) N 0 0 min 0,000 mm 0 W/m 5,2 C 8,8 C 0,0 km/h (0 Bft) 97 %
26.06.2014 01:20 8,7 C 8,7 C 8,8 C 79 % 1014,4 hPa 0,0 l/m 0,0 km/h (0 Bft) N 0 0 min 0,000 mm 0 W/m 5,3 C 8,7 C 0,0 km/h (0 Bft) 89 %
26.06.2014 01:30 8,6 C 8,6 C 8,7 C 79 % 1014,4 hPa 0,0 l/m 0,0 km/h (0 Bft) N 0 0 min 0,000 mm 0 W/m 5,2 C 8,6 C 0,0 km/h (0 Bft) 97 %
26.06.2014 01:40 8,5 C 8,5 C 8,6 C 79 % 1014,3 hPa 0,0 l/m 0,0 km/h (0 Bft) NW 315 0 min 0,000 mm 0 W/m 5,1 C 8,5 C 1,6 km/h (1 Bft) 98 %
26.06.2014 01:50 8,3 C 8,3 C 8,5 C 80 % 1014,3 hPa 0,0 l/m 0,0 km/h (0 Bft) NW 315 0 min 0,000 mm 0 W/m 5,1 C 8,3 C 1,6 km/h (1 Bft) 97 %
26.06.2014 02:00 8,1 C 8,1 C 8,3 C 80 % 1014,3 hPa 0,0 l/m 0,0 km/h (0 Bft) NW 315 0 min 0,025 mm 0 W/m 4,9 C 8,1 C 1,6 km/h (1 Bft) 97 %
26.06.2014 02:10 7,9 C 7,9 C 8,1 C 81 % 1014,3 hPa 0,0 l/m 0,0 km/h (0 Bft) NW 315 0 min 0,000 mm 0 W/m 4,8 C 7,9 C 1,6 km/h (1 Bft) 98 %
26.06.2014 02:20 7,7 C 7,7 C 7,9 C 82 % 1014,4 hPa 0,0 l/m 0,0 km/h (0 Bft) NW 315 0 min 0,000 mm 0 W/m 4,8 C 7,7 C 3,2 km/h (1 Bft) 97 %
26.06.2014 02:30 7,6 C 7,6 C 7,7 C 82 % 1014,4 hPa 0,0 l/m 0,0 km/h (0 Bft) N 0 0 min 0,000 mm 0 W/m 4,7 C 7,6 C 0,0 km/h (0 Bft) 98 %
26.06.2014 02:40 7,5 C 7,5 C 7,6 C 83 % 1014,4 hPa 0,0 l/m 0,0 km/h (0 Bft) NW 315 0 min 0,000 mm 0 W/m 4,8 C 7,5 C 1,6 km/h (1 Bft) 97 %
26.06.2014 02:50 7,3 C 7,3 C 7,5 C 83 % 1014,4 hPa 0,0 l/m 0,0 km/h (0 Bft) N 0 0 min 0,000 mm 0 W/m 4,6 C 7,3 C 0,0 km/h (0 Bft) 98 %
26.06.2014 03:00 7,3 C 7,3 C 7,3 C 84 % 1014,4 hPa 0,0 l/m 0,0 km/h (0 Bft) N 0 0 min 0,000 mm 0 W/m 4,8 C 7,3 C 0,0 km/h (0 Bft) 98 %
26.06.2014 03:10 7,2 C 7,2 C 7,3 C 84 % 1014,4 hPa 0,0 l/m 0,0 km/h (0 Bft) N 0 0 min 0,000 mm 0 W/m 4,7 C 7,2 C 0,0 km/h (0 Bft) 99 %
26.06.2014 03:20 7,1 C 7,1 C 7,2 C 84 % 1014,5 hPa 0,0 l/m 0,0 km/h (0 Bft) NW 315 0 min 0,000 mm 0 W/m 4,6 C 7,1 C 3,2 km/h (1 Bft) 98 %
26.06.2014 03:30 6,9 C 6,9 C 7,1 C 84 % 1014,4 hPa 0,0 l/m 0,0 km/h (0 Bft) NW 315 0 min 0,000 mm 0 W/m 4,4 C 6,9 C 1,6 km/h (1 Bft) 98 %
26.06.2014 03:40 6,8 C 6,8 C 6,9 C 85 % 1014,3 hPa 0,0 l/m 0,0 km/h (0 Bft) N 0 0 min 0,000 mm 0 W/m 4,5 C 6,8 C 0,0 km/h (0 Bft) 98 %
26.06.2014 03:50 6,7 C 6,7 C 6,8 C 85 % 1014,4 hPa 0,0 l/m 0,0 km/h (0 Bft) NW 315 0 min 0,000 mm 0 W/m 4,4 C 6,7 C 1,6 km/h (1 Bft) 99 %
26.06.2014 04:00 6,6 C 6,6 C 6,7 C 85 % 1014,3 hPa 0,0 l/m 0,0 km/h (0 Bft) NW 315 0 min 0,000 mm 0 W/m 4,3 C 6,6 C 1,6 km/h (1 Bft) 100 %
26.06.2014 04:10 6,5 C 6,5 C 6,6 C 85 % 1014,3 hPa 0,0 l/m 0,0 km/h (0 Bft) NW 315 0 min 0,000 mm 0 W/m 4,2 C 6,5 C 1,6 km/h (1 Bft) 100 %
26.06.2014 04:20 6,3 C 6,3 C 6,5 C 85 % 1014,3 hPa 0,0 l/m 0,0 km/h (0 Bft) NW 315 0 min 0,000 mm 0 W/m 4,0 C 6,3 C 1,6 km/h (1 Bft) 99 %
26.06.2014 04:30 6,0 C 6,0 C 6,2 C 85 % 1014,4 hPa 0,0 l/m 0,0 km/h (0 Bft) N 0 0 min 0,000 mm 0 W/m 3,7 C 6,0 C 0,0 km/h (0 Bft) 99 %
26.06.2014 04:40 5,9 C 5,9 C 6,0 C 86 % 1014,4 hPa 0,0 l/m 0,0 km/h (0 Bft) NW 315 0 min 0,000 mm 0 W/m 3,7 C 5,9 C 1,6 km/h (1 Bft) 100 %
26.06.2014 04:50 5,9 C 5,9 C 5,9 C 86 % 1014,4 hPa 0,0 l/m 0,0 km/h (0 Bft) NW 315 0 min 0,000 mm 0 W/m 3,7 C 5,9 C 1,6 km/h (1 Bft) 99 %
26.06.2014 05:00 5,9 C 5,8 C 5,9 C 86 % 1014,5 hPa 0,0 l/m 0,0 km/h (0 Bft) NW 315 0 min 0,000 mm 0 W/m 3,7 C 5,9 C 3,2 km/h (1 Bft) 99 %
26.06.2014 05:10 5,8 C 5,7 C 5,9 C 86 % 1014,6 hPa 0,0 l/m 0,0 km/h (0 Bft) N 0 0 min 0,000 mm 0 W/m 3,6 C 5,8 C 0,0 km/h (0 Bft) 100 %
26.06.2014 05:20 5,7 C 5,7 C 5,8 C 86 % 1014,6 hPa 0,0 l/m 0,0 km/h (0 Bft) N 0 0 min 0,000 mm 0 W/m 3,5 C 5,7 C 0,0 km/h (0 Bft) 100 %
26.06.2014 05:30 5,7 C 5,7 C 5,8 C 86 % 1014,7 hPa 0,0 l/m 0,0 km/h (0 Bft) N 0 0 min 0,000 mm 5 W/m 3,5 C 5,7 C 0,0 km/h (0 Bft) 99 %
26.06.2014 05:40 5,6 C 5,6 C 5,7 C 86 % 1014,7 hPa 0,0 l/m 0,0 km/h (0 Bft) NW 315 0 min 0,000 mm 7 W/m 3,4 C 5,6 C 1,6 km/h (1 Bft) 89 %
26.06.2014 05:50 5,7 C 5,6 C 5,7 C 87 % 1014,7 hPa 0,0 l/m 0,0 km/h (0 Bft) NW 315 0 min 0,000 mm 9 W/m 3,7 C 5,7 C 3,2 km/h (1 Bft) 100 %
26.06.2014 06:00 5,8 C 5,7 C 5,8 C 87 % 1014,7 hPa 0,0 l/m 0,0 km/h (0 Bft) NW 315 0 min 0,000 mm 11 W/m 3,8 C 5,8 C 1,6 km/h (1 Bft) 100 %
26.06.2014 06:10 5,9 C 5,8 C 5,9 C 86 % 1014,7 hPa 0,0 l/m 0,0 km/h (0 Bft) NW 315 0 min 0,000 mm 12 W/m 3,7 C 5,9 C 1,6 km/h (1 Bft) 100 %
26.06.2014 06:20 5,9 C 5,9 C 5,9 C 86 % 1014,7 hPa 0,0 l/m 0,0 km/h (0 Bft) N 0 0 min 0,000 mm 14 W/m 3,7 C 5,9 C 0,0 km/h (0 Bft) 100 %
26.06.2014 06:30 5,8 C 5,8 C 5,9 C 87 % 1014,7 hPa 0,0 l/m 0,0 km/h (0 Bft) NW 315 0 min 0,000 mm 16 W/m 3,8 C 5,8 C 1,6 km/h (1 Bft) 98 %
26.06.2014 06:40 5,9 C 5,8 C 5,9 C 87 % 1014,6 hPa 0,0 l/m 0,0 km/h (0 Bft) NW 315 0 min 0,000 mm 19 W/m 3,9 C 5,9 C 4,8 km/h (1 Bft) 100 %
26.06.2014 06:50 6,2 C 5,9 C 6,2 C 87 % 1014,6 hPa 0,0 l/m 1,6 km/h (1 Bft) N-NW 337 0 min 0,000 mm 39 W/m 4,2 C 6,2 C 4,8 km/h (1 Bft) 100 %
26.06.2014 07:00 6,6 C 6,2 C 6,6 C 87 % 1014,8 hPa 0,0 l/m 0,0 km/h (0 Bft) N-NW 337 0 min 0,000 mm 77 W/m 4,6 C 6,6 C 4,8 km/h (1 Bft) 99 %
26.06.2014 07:10 7,2 C 6,6 C 7,2 C 87 % 1014,6 hPa 0,0 l/m 1,6 km/h (1 Bft) N-NW 337 0 min 0,000 mm 91 W/m 5,2 C 7,2 C 4,8 km/h (1 Bft) 100 %
26.06.2014 07:20 7,9 C 7,3 C 7,9 C 87 % 1014,6 hPa 0,0 l/m 0,0 km/h (0 Bft) N-NW 337 0 min 0,000 mm 104 W/m 5,9 C 7,9 C 3,2 km/h (1 Bft) 100 %
26.06.2014 07:30 8,4 C 7,3 C 8,4 C 87 % 1014,4 hPa 0,0 l/m 0,0 km/h (0 Bft) N-NW 341 0 min 0,000 mm 90 W/m 6,4 C 8,4 C 0,0 km/h (0 Bft) 98 %
26.06.2014 07:40 8,9 C 8,4 C 8,9 C 86 % 1014,4 hPa 0,0 l/m 0,0 km/h (0 Bft) N-NW 331 0 min 0,000 mm 98 W/m 6,7 C 8,9 C 3,2 km/h (1 Bft) 89 %
26.06.2014 07:50 9,4 C 8,9 C 9,4 C 86 % 1014,5 hPa 0,0 l/m 0,2 km/h (0 Bft) N-NW 345 0 min 0,000 mm 74 W/m 7,2 C 9,4 C 3,2 km/h (1 Bft) 98 %
26.06.2014 08:00 9,9 C 9,4 C 9,9 C 84 % 1014,5 hPa 0,0 l/m 0,2 km/h (0 Bft) NW 304 0 min 0,027 mm 67 W/m 7,3 C 9,9 C 4,8 km/h (1 Bft) 97 %
26.06.2014 08:10 10,2 C 9,9 C 10,2 C 83 % 1014,4 hPa 0,0 l/m 0,0 km/h (0 Bft) N-NW 327 0 min 0,000 mm 98 W/m 7,4 C 10,2 C 1,6 km/h (1 Bft) 98 %
26.06.2014 08:20 10,8 C 10,2 C 10,8 C 83 % 1014,6 hPa 0,0 l/m 0,1 km/h (0 Bft) N-NW 339 10 min 0,000 mm 209 W/m 8,0 C 10,8 C 3,2 km/h (1 Bft) 97 %
26.06.2014 08:30 11,6 C 10,8 C 11,6 C 81 % 1014,4 hPa 0,0 l/m 0,8 km/h (0 Bft) O 80 10 min 0,000 mm 236 W/m 8,5 C 11,6 C 8,0 km/h (2 Bft) 98 %
26.06.2014 08:40 12,3 C 11,6 C 12,3 C 78 % 1014,4 hPa 0,0 l/m 0,5 km/h (0 Bft) N 11 10 min 0,000 mm 200 W/m 8,6 C 12,3 C 4,8 km/h (1 Bft) 98 %
26.06.2014 08:50 12,8 C 12,3 C 12,8 C 76 % 1014,5 hPa 0,0 l/m 0,4 km/h (0 Bft) N-NO 26 10 min 0,000 mm 360 W/m 8,7 C 12,8 C 6,4 km/h (2 Bft) 97 %
26.06.2014 09:00 13,5 C 12,8 C 13,5 C 74 % 1014,5 hPa 0,0 l/m 0,3 km/h (0 Bft) N-NO 17 10 min 0,127 mm 297 W/m 9,0 C 13,5 C 4,8 km/h (1 Bft) 97 %
26.06.2014 09:10 13,7 C 13,5 C 13,7 C 72 % 1014,5 hPa 0,0 l/m 0,2 km/h (0 Bft) N 5 10 min 0,000 mm 199 W/m 8,7 C 13,7 C 6,4 km/h (2 Bft) 97 %
26.06.2014 09:20 14,1 C 13,7 C 14,1 C 71 % 1014,3 hPa 0,0 l/m 0,1 km/h (0 Bft) N 360 10 min 0,000 mm 566 W/m 8,9 C 14,1 C 3,2 km/h (1 Bft) 98 %
26.06.2014 09:30 15,1 C 14,1 C 15,1 C 68 % 1014,3 hPa 0,0 l/m 0,7 km/h (0 Bft) O-SO 110 10 min 0,000 mm 598 W/m 9,2 C 15,1 C 6,4 km/h (2 Bft) 97 %
26.06.2014 09:40 15,9 C 15,1 C 15,9 C 66 % 1014,3 hPa 0,0 l/m 0,5 km/h (0 Bft) NO 55 10 min 0,000 mm 617 W/m 9,6 C 15,9 C 4,8 km/h (1 Bft) 97 %
26.06.2014 09:50 16,1 C 15,9 C 16,1 C 65 % 1014,4 hPa 0,0 l/m 0,6 km/h (0 Bft) SO 128 10 min 0,000 mm 584 W/m 9,5 C 16,1 C 4,8 km/h (1 Bft) 97 %
26.06.2014 10:00 16,3 C 16,1 C 16,3 C 63 % 1014,4 hPa 0,0 l/m 0,8 km/h (0 Bft) NW 325 10 min 0,254 mm 492 W/m 9,2 C 16,3 C 6,4 km/h (2 Bft) 98 %
26.06.2014 10:10 16,6 C 16,3 C 16,6 C 60 % 1014,3 hPa 0,0 l/m 1,4 km/h (1 Bft) NW 321 10 min 0,000 mm 701 W/m 8,8 C 16,6 C 6,4 km/h (2 Bft) 98 %
26.06.2014 10:20 17,0 C 16,6 C 17,0 C 61 % 1014,3 hPa 0,0 l/m 0,7 km/h (0 Bft) N-NW 340 10 min 0,000 mm 745 W/m 9,4 C 17,0 C 8,0 km/h (2 Bft) 97 %
26.06.2014 10:30 17,4 C 17,0 C 17,4 C 56 % 1014,1 hPa 0,0 l/m 0,6 km/h (0 Bft) N 355 10 min 0,000 mm 506 W/m 8,5 C 17,4 C 4,8 km/h (1 Bft) 98 %
26.06.2014 10:40 17,4 C 17,4 C 17,4 C 55 % 1014,1 hPa 0,0 l/m 1,0 km/h (0 Bft) N-NO 22 10 min 0,000 mm 232 W/m 8,3 C 17,4 C 8,0 km/h (2 Bft) 97 %
26.06.2014 10:50 17,6 C 17,4 C 17,6 C 56 % 1014,0 hPa 0,0 l/m 0,8 km/h (0 Bft) NW 309 10 min 0,000 mm 684 W/m 8,7 C 17,6 C 6,4 km/h (2 Bft) 97 %
26.06.2014 11:00 18,2 C 17,6 C 18,2 C 53 % 1014,0 hPa 0,0 l/m 2,6 km/h (1 Bft) NW 315 10 min 0,355 mm 473 W/m 8,5 C 18,2 C 8,0 km/h (2 Bft) 97 %
26.06.2014 11:10 18,1 C 18,1 C 18,3 C 53 % 1014,1 hPa 0,0 l/m 0,3 km/h (0 Bft) O 80 10 min 0,000 mm 218 W/m 8,4 C 18,1 C 4,8 km/h (1 Bft) 98 %
26.06.2014 11:20 17,9 C 17,8 C 18,1 C 55 % 1014,1 hPa 0,0 l/m 1,6 km/h (1 Bft) NW 306 10 min 0,000 mm 336 W/m 8,7 C 17,9 C 9,7 km/h (2 Bft) 97 %
26.06.2014 11:30 18,3 C 17,9 C 18,3 C 54 % 1014,1 hPa 0,0 l/m 2,0 km/h (1 Bft) W 271 10 min 0,000 mm 814 W/m 8,8 C 18,3 C 9,7 km/h (2 Bft) 97 %
26.06.2014 11:40 19,1 C 18,3 C 19,1 C 50 % 1014,1 hPa 0,0 l/m 1,7 km/h (1 Bft) N 9 10 min 0,000 mm 900 W/m 8,4 C 19,1 C 8,0 km/h (2 Bft) 98 %
26.06.2014 11:50 19,2 C 19,1 C 19,2 C 49 % 1014,1 hPa 0,0 l/m 0,2 km/h (0 Bft) O-NO 65 10 min 0,000 mm 686 W/m 8,2 C 19,2 C 4,8 km/h (1 Bft) 98 %
26.06.2014 12:00 19,1 C 18,9 C 19,2 C 51 % 1014,0 hPa 0,0 l/m 3,5 km/h (1 Bft) N-NW 327 10 min 0,381 mm 891 W/m 8,7 C 19,1 C 14,5 km/h (3 Bft) 98 %
26.06.2014 12:10 19,4 C 19,1 C 19,4 C 50 % 1014,1 hPa 0,0 l/m 2,7 km/h (1 Bft) W-NW 301 10 min 0,000 mm 786 W/m 8,7 C 19,4 C 12,9 km/h (3 Bft) 97 %
26.06.2014 12:20 19,2 C 19,2 C 19,4 C 51 % 1014,1 hPa 0,0 l/m 1,4 km/h (1 Bft) S 169 10 min 0,000 mm 647 W/m 8,8 C 19,2 C 8,0 km/h (2 Bft) 97 %
26.06.2014 12:30 19,6 C 19,2 C 19,6 C 48 % 1014,0 hPa 0,0 l/m 2,2 km/h (1 Bft) N-NW 329 10 min 0,000 mm 886 W/m 8,3 C 19,6 C 8,0 km/h (2 Bft) 98 %
26.06.2014 12:40 20,3 C 19,6 C 20,3 C 47 % 1013,9 hPa 0,0 l/m 6,2 km/h (2 Bft) NW 311 10 min 0,000 mm 833 W/m 8,6 C 20,3 C 16,1 km/h (3 Bft) 97 %
26.06.2014 12:50 20,5 C 20,3 C 20,6 C 44 % 1013,9 hPa 0,0 l/m 5,2 km/h (1 Bft) N 355 10 min 0,000 mm 867 W/m 7,8 C 20,5 C 16,1 km/h (3 Bft) 98 %
26.06.2014 13:00 20,3 C 20,3 C 20,5 C 43 % 1013,7 hPa 0,0 l/m 2,8 km/h (1 Bft) NW 321 10 min 0,483 mm 916 W/m 7,3 C 20,3 C 9,7 km/h (2 Bft) 97 %
26.06.2014 13:10 20,4 C 20,3 C 20,4 C 43 % 1013,7 hPa 0,0 l/m 2,7 km/h (1 Bft) S-SW 197 10 min 0,000 mm 896 W/m 7,4 C 20,4 C 8,0 km/h (2 Bft) 97 %
26.06.2014 13:20 20,6 C 20,4 C 20,6 C 46 % 1013,5 hPa 0,0 l/m 2,4 km/h (1 Bft) NO 37 10 min 0,000 mm 854 W/m 8,6 C 20,6 C 8,0 km/h (2 Bft) 97 %
26.06.2014 13:30 20,4 C 20,4 C 20,7 C 47 % 1013,4 hPa 0,0 l/m 5,2 km/h (1 Bft) O 97 10 min 0,000 mm 923 W/m 8,7 C 20,4 C 16,1 km/h (3 Bft) 97 %
26.06.2014 13:40 20,3 C 20,2 C 20,5 C 46 % 1013,4 hPa 0,0 l/m 1,5 km/h (1 Bft) O-SO 111 10 min 0,000 mm 970 W/m 8,3 C 20,3 C 9,7 km/h (2 Bft) 98 %
26.06.2014 13:50 21,1 C 20,3 C 21,1 C 45 % 1013,3 hPa 0,0 l/m 2,0 km/h (1 Bft) O-SO 117 10 min 0,000 mm 972 W/m 8,7 C 21,1 C 9,7 km/h (2 Bft) 97 %
26.06.2014 14:00 20,9 C 20,9 C 21,2 C 44 % 1013,2 hPa 0,0 l/m 2,9 km/h (1 Bft) NW 311 10 min 0,508 mm 260 W/m 8,2 C 20,9 C 16,1 km/h (3 Bft) 98 %
26.06.2014 14:10 21,5 C 20,9 C 21,5 C 42 % 1013,1 hPa 0,0 l/m 6,0 km/h (2 Bft) NW 311 10 min 0,000 mm 812 W/m 8,0 C 21,5 C 14,5 km/h (3 Bft) 97 %
26.06.2014 14:20 21,9 C 21,5 C 21,9 C 43 % 1013,0 hPa 0,0 l/m 2,7 km/h (1 Bft) NO 40 10 min 0,000 mm 190 W/m 8,7 C 21,9 C 11,3 km/h (2 Bft) 97 %
26.06.2014 14:30 21,8 C 21,8 C 21,9 C 42 % 1012,9 hPa 0,0 l/m 1,1 km/h (1 Bft) NO 41 10 min 0,000 mm 946 W/m 8,3 C 21,8 C 9,7 km/h (2 Bft) 97 %
26.06.2014 14:40 22,3 C 21,8 C 22,3 C 39 % 1012,8 hPa 0,0 l/m 2,0 km/h (1 Bft) NW 319 10 min 0,000 mm 914 W/m 7,7 C 22,3 C 8,0 km/h (2 Bft) 97 %
26.06.2014 14:50 22,6 C 22,3 C 22,6 C 40 % 1012,8 hPa 0,0 l/m 4,4 km/h (1 Bft) W-NW 292 10 min 0,000 mm 896 W/m 8,3 C 22,6 C 19,3 km/h (3 Bft) 98 %
26.06.2014 15:00 22,8 C 22,6 C 22,8 C 40 % 1013,0 hPa 0,0 l/m 1,4 km/h (1 Bft) S-SO 151 10 min 0,533 mm 953 W/m 8,5 C 22,8 C 8,0 km/h (2 Bft) 97 %
26.06.2014 15:10 22,4 C 22,4 C 22,8 C 40 % 1013,1 hPa 0,0 l/m 2,6 km/h (1 Bft) W 276 10 min 0,000 mm 731 W/m 8,1 C 22,4 C 14,5 km/h (3 Bft) 98 %
26.06.2014 15:20 22,4 C 22,4 C 22,6 C 40 % 1013,1 hPa 0,0 l/m 2,5 km/h (1 Bft) NW 311 10 min 0,000 mm 162 W/m 8,1 C 22,4 C 12,9 km/h (3 Bft) 97 %
26.06.2014 15:30 21,9 C 21,9 C 22,4 C 39 % 1012,9 hPa 0,0 l/m 1,8 km/h (1 Bft) W-NW 286 10 min 0,000 mm 819 W/m 7,3 C 21,9 C 11,3 km/h (2 Bft) 97 %
26.06.2014 15:40 22,7 C 21,9 C 22,7 C 40 % 1013,0 hPa 0,0 l/m 5,6 km/h (1 Bft) NW 308 10 min 0,000 mm 763 W/m 8,4 C 22,7 C 14,5 km/h (3 Bft) 98 %
26.06.2014 15:50 23,1 C 22,7 C 23,1 C 38 % 1013,0 hPa 0,0 l/m 1,1 km/h (1 Bft) W-SW 249 10 min 0,000 mm 805 W/m 8,0 C 23,1 C 11,3 km/h (2 Bft) 97 %
26.06.2014 16:00 22,3 C 22,3 C 23,1 C 40 % 1012,9 hPa 0,0 l/m 0,8 km/h (0 Bft) NW 318 10 min 0,432 mm 207 W/m 8,0 C 22,3 C 8,0 km/h (2 Bft) 98 %
26.06.2014 16:10 21,8 C 21,8 C 22,3 C 41 % 1013,0 hPa 0,0 l/m 2,1 km/h (1 Bft) N 9 10 min 0,000 mm 176 W/m 8,0 C 21,8 C 8,0 km/h (2 Bft) 97 %
26.06.2014 16:20 20,8 C 20,8 C 21,8 C 41 % 1013,0 hPa 0,0 l/m 1,2 km/h (1 Bft) O 98 10 min 0,000 mm 216 W/m 7,1 C 20,8 C 11,3 km/h (2 Bft) 98 %
26.06.2014 16:30 20,6 C 20,4 C 20,8 C 45 % 1012,8 hPa 0,0 l/m 0,7 km/h (0 Bft) O-SO 119 10 min 0,000 mm 893 W/m 8,2 C 20,6 C 6,4 km/h (2 Bft) 97 %
26.06.2014 16:40 21,4 C 20,6 C 21,4 C 43 % 1012,8 hPa 0,0 l/m 0,6 km/h (0 Bft) S-SW 207 10 min 0,000 mm 798 W/m 8,3 C 21,4 C 6,4 km/h (2 Bft) 97 %
26.06.2014 16:50 22,2 C 21,4 C 22,2 C 42 % 1012,8 hPa 0,0 l/m 1,0 km/h (0 Bft) SO 137 10 min 0,000 mm 573 W/m 8,7 C 22,2 C 8,0 km/h (2 Bft) 97 %
26.06.2014 17:00 22,2 C 22,2 C 22,2 C 42 % 1012,6 hPa 0,0 l/m 1,2 km/h (1 Bft) N 355 10 min 0,254 mm 427 W/m 8,7 C 22,2 C 8,0 km/h (2 Bft) 97 %
26.06.2014 17:10 22,2 C 22,2 C 22,3 C 42 % 1012,7 hPa 0,0 l/m 1,9 km/h (1 Bft) N-NO 12 10 min 0,000 mm 538 W/m 8,7 C 22,2 C 8,0 km/h (2 Bft) 98 %
26.06.2014 17:20 22,3 C 22,2 C 22,3 C 42 % 1012,7 hPa 0,0 l/m 0,7 km/h (0 Bft) S 190 0 min 0,000 mm 144 W/m 8,8 C 22,3 C 6,4 km/h (2 Bft) 98 %
26.06.2014 17:30 21,9 C 21,9 C 22,3 C 44 % 1012,7 hPa 0,0 l/m 0,4 km/h (0 Bft) SO 128 10 min 0,000 mm 206 W/m 9,1 C 21,9 C 6,4 km/h (2 Bft) 97 %
26.06.2014 17:40 22,1 C 21,8 C 22,1 C 41 % 1012,6 hPa 0,0 l/m 0,8 km/h (0 Bft) N-NW 346 10 min 0,000 mm 172 W/m 8,2 C 22,1 C 6,4 km/h (2 Bft) 98 %
26.06.2014 17:50 22,4 C 22,1 C 22,4 C 40 % 1012,7 hPa 0,0 l/m 1,8 km/h (1 Bft) N 5 10 min 0,000 mm 541 W/m 8,1 C 22,4 C 9,7 km/h (2 Bft) 98 %
26.06.2014 18:00 22,2 C 22,2 C 22,5 C 40 % 1012,6 hPa 0,0 l/m 1,4 km/h (1 Bft) S-SW 208 10 min 0,254 mm 547 W/m 8,0 C 22,2 C 8,0 km/h (2 Bft) 98 %
26.06.2014 18:10 21,9 C 21,9 C 22,2 C 41 % 1012,5 hPa 0,0 l/m 0,9 km/h (0 Bft) W-NW 303 10 min 0,000 mm 413 W/m 8,0 C 21,9 C 8,0 km/h (2 Bft) 97 %
26.06.2014 18:20 21,8 C 21,8 C 21,9 C 43 % 1012,6 hPa 0,0 l/m 0,7 km/h (0 Bft) N-NW 331 0 min 0,000 mm 130 W/m 8,7 C 21,8 C 6,4 km/h (2 Bft) 98 %
26.06.2014 18:30 21,3 C 21,3 C 21,8 C 44 % 1012,6 hPa 0,0 l/m 0,2 km/h (0 Bft) NW 323 10 min 0,000 mm 185 W/m 8,5 C 21,3 C 4,8 km/h (1 Bft) 97 %
26.06.2014 18:40 21,3 C 21,2 C 21,3 C 44 % 1012,6 hPa 0,0 l/m 1,4 km/h (1 Bft) NW 319 10 min 0,000 mm 385 W/m 8,5 C 21,3 C 6,4 km/h (2 Bft) 98 %
26.06.2014 18:50 21,4 C 21,3 C 21,4 C 42 % 1012,6 hPa 0,0 l/m 1,0 km/h (0 Bft) W-SW 243 10 min 0,000 mm 345 W/m 8,0 C 21,4 C 6,4 km/h (2 Bft) 97 %
26.06.2014 19:00 21,6 C 21,4 C 21,6 C 43 % 1012,7 hPa 0,0 l/m 2,6 km/h (1 Bft) NW 315 10 min 0,203 mm 313 W/m 8,5 C 21,6 C 14,5 km/h (3 Bft) 97 %
26.06.2014 19:10 21,6 C 21,6 C 21,7 C 42 % 1012,7 hPa 0,0 l/m 1,4 km/h (1 Bft) N-NW 338 10 min 0,000 mm 283 W/m 8,1 C 21,6 C 8,0 km/h (2 Bft) 98 %
26.06.2014 19:20 21,6 C 21,6 C 21,7 C 43 % 1012,7 hPa 0,0 l/m 0,4 km/h (0 Bft) O 88 10 min 0,000 mm 262 W/m 8,5 C 21,6 C 4,8 km/h (1 Bft) 97 %
26.06.2014 19:30 21,5 C 21,5 C 21,6 C 43 % 1012,8 hPa 0,0 l/m 0,1 km/h (0 Bft) N 5 10 min 0,000 mm 225 W/m 8,4 C 21,5 C 3,2 km/h (1 Bft) 98 %
26.06.2014 19:40 21,5 C 21,5 C 21,5 C 42 % 1012,9 hPa 0,0 l/m 0,0 km/h (0 Bft) N 5 10 min 0,000 mm 197 W/m 8,0 C 21,5 C 1,6 km/h (1 Bft) 97 %
26.06.2014 19:50 21,2 C 21,2 C 21,5 C 44 % 1012,9 hPa 0,0 l/m 0,1 km/h (0 Bft) N-NW 346 0 min 0,000 mm 58 W/m 8,5 C 21,2 C 4,8 km/h (1 Bft) 97 %
26.06.2014 20:00 20,8 C 20,8 C 21,2 C 44 % 1012,9 hPa 0,0 l/m 0,0 km/h (0 Bft) N-NW 339 0 min 0,127 mm 47 W/m 8,1 C 20,8 C 1,6 km/h (1 Bft) 98 %
26.06.2014 20:10 20,4 C 20,4 C 20,8 C 45 % 1012,9 hPa 0,0 l/m 0,0 km/h (0 Bft) N-NW 348 0 min 0,000 mm 32 W/m 8,1 C 20,4 C 1,6 km/h (1 Bft) 97 %
26.06.2014 20:20 20,2 C 20,2 C 20,4 C 47 % 1013,0 hPa 0,0 l/m 0,2 km/h (0 Bft) N 10 0 min 0,000 mm 28 W/m 8,5 C 20,2 C 4,8 km/h (1 Bft) 97 %
26.06.2014 20:30 19,8 C 19,8 C 20,2 C 48 % 1013,0 hPa 0,0 l/m 0,0 km/h (0 Bft) N 10 0 min 0,000 mm 25 W/m 8,5 C 19,8 C 1,6 km/h (1 Bft) 97 %
26.06.2014 20:40 19,4 C 19,4 C 19,8 C 49 % 1013,1 hPa 0,0 l/m 0,0 km/h (0 Bft) N 10 0 min 0,000 mm 21 W/m 8,4 C 19,4 C 1,6 km/h (1 Bft) 98 %
26.06.2014 20:50 19,1 C 19,1 C 19,4 C 51 % 1013,1 hPa 0,0 l/m 0,0 km/h (0 Bft) N 10 0 min 0,000 mm 18 W/m 8,7 C 19,1 C 1,6 km/h (1 Bft) 97 %
26.06.2014 21:00 18,5 C 18,5 C 19,1 C 52 % 1013,2 hPa 0,0 l/m 0,0 km/h (0 Bft) N 10 0 min 0,026 mm 14 W/m 8,5 C 18,5 C 0,0 km/h (0 Bft) 97 %
26.06.2014 21:10 17,9 C 17,9 C 18,5 C 55 % 1013,3 hPa 0,0 l/m 0,0 km/h (0 Bft) N 0 0 min 0,000 mm 14 W/m 8,7 C 17,9 C 0,0 km/h (0 Bft) 100 %
26.06.2014 21:20 17,3 C 17,3 C 17,9 C 56 % 1013,4 hPa 0,0 l/m 0,0 km/h (0 Bft) N 0 0 min 0,000 mm 9 W/m 8,4 C 17,3 C 0,0 km/h (0 Bft) 100 %
26.06.2014 21:30 16,8 C 16,8 C 17,3 C 57 % 1013,5 hPa 0,0 l/m 0,0 km/h (0 Bft) N 0 0 min 0,000 mm 7 W/m 8,2 C 16,8 C 0,0 km/h (0 Bft) 100 %
26.06.2014 21:40 16,4 C 16,4 C 16,8 C 56 % 1013,6 hPa 0,0 l/m 0,0 km/h (0 Bft) N 0 0 min 0,000 mm 0 W/m 7,6 C 16,4 C 0,0 km/h (0 Bft) 100 %
26.06.2014 21:50 16,1 C 16,1 C 16,4 C 58 % 1014,0 hPa 0,0 l/m 0,0 km/h (0 Bft) N 0 0 min 0,000 mm 0 W/m 7,8 C 16,1 C 0,0 km/h (0 Bft) 100 %
26.06.2014 22:00 15,8 C 15,8 C 16,1 C 60 % 1013,9 hPa 0,0 l/m 0,0 km/h (0 Bft) N 0 0 min 0,000 mm 0 W/m 8,1 C 15,8 C 0,0 km/h (0 Bft) 100 %
26.06.2014 22:10 15,4 C 15,4 C 15,8 C 61 % 1014,1 hPa 0,0 l/m 0,0 km/h (0 Bft) N 0 0 min 0,000 mm 0 W/m 7,9 C 15,4 C 0,0 km/h (0 Bft) 100 %
26.06.2014 22:20 15,1 C 15,1 C 15,4 C 62 % 1014,1 hPa 0,0 l/m 0,0 km/h (0 Bft) N 360 0 min 0,000 mm 0 W/m 7,9 C 15,1 C 1,6 km/h (1 Bft) 100 %
26.06.2014 22:30 14,6 C 14,6 C 15,1 C 63 % 1014,2 hPa 0,0 l/m 0,0 km/h (0 Bft) N 0 0 min 0,000 mm 0 W/m 7,6 C 14,6 C 0,0 km/h (0 Bft) 100 %
26.06.2014 22:40 14,2 C 14,2 C 14,6 C 64 % 1014,2 hPa 0,0 l/m 0,0 km/h (0 Bft) N 0 0 min 0,000 mm 0 W/m 7,5 C 14,2 C 0,0 km/h (0 Bft) 100 %
26.06.2014 22:50 13,9 C 13,9 C 14,2 C 65 % 1014,2 hPa 0,0 l/m 0,0 km/h (0 Bft) N 360 0 min 0,000 mm 0 W/m 7,4 C 13,9 C 1,6 km/h (1 Bft) 100 %
26.06.2014 23:00 13,6 C 13,6 C 13,9 C 66 % 1014,3 hPa 0,0 l/m 0,0 km/h (0 Bft) N 360 0 min 0,025 mm 0 W/m 7,4 C 13,6 C 3,2 km/h (1 Bft) 100 %
26.06.2014 23:10 13,4 C 13,4 C 13,6 C 66 % 1014,2 hPa 0,0 l/m 0,0 km/h (0 Bft) N 0 0 min 0,000 mm 0 W/m 7,2 C 13,4 C 0,0 km/h (0 Bft) 100 %
26.06.2014 23:20 13,2 C 13,2 C 13,4 C 67 % 1014,2 hPa 0,0 l/m 0,0 km/h (0 Bft) N 360 0 min 0,000 mm 0 W/m 7,2 C 13,2 C 1,6 km/h (1 Bft) 100 %
26.06.2014 23:30 13,1 C 13,1 C 13,2 C 68 % 1014,2 hPa 0,0 l/m 0,0 km/h (0 Bft) N 360 0 min 0,000 mm 0 W/m 7,3 C 13,1 C 1,6 km/h (1 Bft) 100 %
26.06.2014 23:40 12,8 C 12,8 C 13,1 C 69 % 1014,2 hPa 0,0 l/m 0,0 km/h (0 Bft) N 360 0 min 0,000 mm 0 W/m 7,3 C 12,8 C 1,6 km/h (1 Bft) 100 %
26.06.2014 23:50 12,6 C 12,6 C 12,8 C 68 % 1014,2 hPa 0,0 l/m 0,0 km/h (0 Bft) N 360 0 min 0,000 mm 0 W/m 6,9 C 12,6 C 1,6 km/h (1 Bft) 100 %
_ Min-Zeit 05:40 05:40 05:40 15:50 18:10 - 00:00 - - - - - 05:40 05:40 00:00 01:20
Minimum _ 5,6 C 5,6 C 5,7 C 38 % 1012,5 hPa - 0,0 km/h (0 Bft) - - - - - 3,4 C 5,6 C 0,0 km/h (0 Bft) 89 %
_ Max-Zeit 15:50 15:50 15:50 05:50 07:00 00:00 12:40 - - 08:20 15:00 13:50 09:40 15:50 14:50 04:00
Maximum _ 23,1 C 22,7 C 23,1 C 87 % 1014,8 hPa 0,0 l/m 6,2 km/h
NW (2 Bft)
- - 10 min 0,533 mm 972 W/m 9,6 C 23,1 C 19,3 km/h
NW (3 Bft)
100 %
Durchschnitt _ 14,9 C 14,7 C 15,0 C 63 % 1013,8 hPa #0,0 l/m 0,8 km/h (0 Bft) NW - #11:10 h #4,064 mm 398 W/m 7,1 C 14,9 C 4,8 km/h (1 Bft) 98 %
PRIVATE WETTERSTATION BILLIGHEIM-ALLFELD - www.neckar-odenwald-wetter.de - Holger Sonntag